TimeEST,TemperatureF,Dew PointF,Humidity,Sea Level PressureIn,VisibilityMPH,Wind Direction,Wind SpeedMPH,Gust SpeedMPH,PrecipitationIn,Events,Conditions,WindDirDegrees,DateUTC
12:15 AM,57.2,48.2,72,29.97,10.0,WSW,8.1,-,N/A,,Clear,250,2013-02-12 05:15:00
12:35 AM,55.4,48.2,77,29.98,10.0,WSW,5.8,-,N/A,,Clear,250,2013-02-12 05:35:00
12:55 AM,55.4,48.2,77,29.98,10.0,West,4.6,-,N/A,,Clear,260,2013-02-12 05:55:00
1:15 AM,55.4,48.2,77,29.99,10.0,WSW,8.1,-,N/A,,Clear,250,2013-02-12 06:15:00
1:35 AM,55.4,46.4,72,29.99,10.0,WSW,11.5,-,N/A,,Clear,250,2013-02-12 06:35:00
1:55 AM,55.4,46.4,72,30.00,10.0,West,6.9,-,N/A,,Clear,270,2013-02-12 06:55:00
2:15 AM,53.6,46.4,77,30.00,10.0,West,6.9,-,N/A,,Clear,260,2013-02-12 07:15:00
2:35 AM,53.6,46.4,77,30.00,10.0,West,8.1,-,N/A,,Clear,270,2013-02-12 07:35:00
2:55 AM,53.6,46.4,77,29.99,10.0,West,8.1,-,N/A,,Clear,260,2013-02-12 07:55:00
3:15 AM,53.6,46.4,77,29.99,10.0,West,4.6,-,N/A,,Clear,270,2013-02-12 08:15:00
3:35 AM,51.8,46.4,82,29.99,10.0,West,4.6,-,N/A,,Clear,270,2013-02-12 08:35:00
3:55 AM,51.8,46.4,82,30.00,10.0,West,4.6,-,N/A,,Clear,260,2013-02-12 08:55:00
4:15 AM,51.8,46.4,82,30.00,10.0,Calm,Calm,-,N/A,,Clear,0,2013-02-12 09:15:00
4:35 AM,50.0,46.4,87,29.99,10.0,Calm,Calm,-,N/A,,Clear,0,2013-02-12 09:35:00
4:55 AM,48.2,44.6,87,30.00,10.0,Calm,Calm,-,N/A,,Clear,0,2013-02-12 09:55:00
5:15 AM,48.2,44.6,87,30.00,10.0,Calm,Calm,-,N/A,,Clear,0,2013-02-12 10:15:00
5:35 AM,48.2,44.6,87,30.01,10.0,Calm,Calm,-,N/A,,Clear,0,2013-02-12 10:35:00
5:55 AM,48.2,44.6,87,30.01,10.0,Calm,Calm,-,N/A,,Clear,0,2013-02-12 10:55:00
6:15 AM,48.2,44.6,87,30.02,10.0,West,3.5,-,N/A,,Clear,280,2013-02-12 11:15:00
6:35 AM,48.2,44.6,87,30.02,10.0,West,3.5,-,N/A,,Clear,280,2013-02-12 11:35:00
6:55 AM,48.2,44.6,87,30.04,10.0,Calm,Calm,-,N/A,,Clear,0,2013-02-12 11:55:00
7:15 AM,46.4,42.8,87,30.04,10.0,Calm,Calm,-,N/A,,Clear,0,2013-02-12 12:15:00
7:35 AM,48.2,42.8,82,30.05,10.0,NNW,5.8,-,N/A,,Clear,330,2013-02-12 12:35:00
7:55 AM,48.2,35.6,62,30.06,10.0,North,3.5,-,N/A,,Clear,350,2013-02-12 12:55:00
8:15 AM,48.2,33.8,58,30.07,10.0,NNW,3.5,-,N/A,,Clear,340,2013-02-12 13:15:00
8:35 AM,48.2,32.0,54,30.06,10.0,NNW,3.5,-,N/A,,Clear,340,2013-02-12 13:35:00
8:55 AM,48.2,30.2,50,30.06,10.0,North,3.5,-,N/A,,Clear,360,2013-02-12 13:55:00
9:15 AM,48.2,28.4,46,30.08,10.0,North,3.5,-,N/A,,Clear,350,2013-02-12 14:15:00
9:35 AM,50.0,28.4,43,30.10,10.0,Calm,Calm,-,N/A,,Clear,0,2013-02-12 14:35:00
9:55 AM,51.8,26.6,38,30.10,10.0,NW,6.9,-,N/A,,Clear,320,2013-02-12 14:55:00
10:15 AM,51.8,28.4,41,30.09,10.0,NNW,5.8,-,N/A,,Clear,340,2013-02-12 15:15:00
10:35 AM,53.6,28.4,38,30.10,10.0,North,3.5,-,N/A,,Clear,350,2013-02-12 15:35:00
10:55 AM,55.4,28.4,36,30.10,10.0,NNE,3.5,-,N/A,,Clear,20,2013-02-12 15:55:00
11:15 AM,55.4,26.6,33,30.09,10.0,Calm,Calm,-,N/A,,Clear,0,2013-02-12 16:15:00
11:35 AM,57.2,26.6,31,30.07,10.0,Calm,Calm,-,N/A,,Clear,0,2013-02-12 16:35:00
11:55 AM,57.2,26.6,31,30.06,10.0,NW,4.6,-,N/A,,Clear,320,2013-02-12 16:55:00
12:15 PM,59.0,24.8,27,30.05,10.0,NNE,4.6,-,N/A,,Clear,20,2013-02-12 17:15:00
12:35 PM,60.8,24.8,25,30.04,10.0,NNW,5.8,-,N/A,,Clear,330,2013-02-12 17:35:00
12:55 PM,60.8,24.8,25,30.04,10.0,Calm,Calm,-,N/A,,Clear,0,2013-02-12 17:55:00
1:15 PM,60.8,23.0,23,30.02,10.0,NNE,4.6,-,N/A,,Clear,30,2013-02-12 18:15:00
1:35 PM,62.6,24.8,24,30.00,10.0,Calm,Calm,-,N/A,,Clear,0,2013-02-12 18:35:00
1:55 PM,60.8,23.0,23,29.99,10.0,Calm,Calm,-,N/A,,Clear,0,2013-02-12 18:55:00
2:15 PM,62.6,23.0,22,29.99,10.0,SSW,3.5,-,N/A,,Clear,210,2013-02-12 19:15:00
2:35 PM,62.6,23.0,22,30.00,10.0,Calm,Calm,-,N/A,,Clear,0,2013-02-12 19:35:00
2:55 PM,62.6,24.8,24,29.99,10.0,WSW,6.9,-,N/A,,Clear,250,2013-02-12 19:55:00
3:15 PM,62.6,24.8,24,30.00,10.0,SW,6.9,-,N/A,,Clear,230,2013-02-12 20:15:00
3:35 PM,62.6,24.8,24,29.99,10.0,Calm,Calm,-,N/A,,Clear,0,2013-02-12 20:35:00
3:55 PM,62.6,24.8,24,29.98,10.0,Calm,Calm,-,N/A,,Clear,0,2013-02-12 20:55:00
4:15 PM,62.6,23.0,22,29.97,10.0,Calm,Calm,-,N/A,,Clear,0,2013-02-12 21:15:00
4:35 PM,60.8,24.8,25,29.98,10.0,Calm,Calm,-,N/A,,Clear,0,2013-02-12 21:35:00
4:55 PM,60.8,26.6,27,29.98,10.0,Calm,Calm,-,N/A,,Clear,0,2013-02-12 21:55:00
5:15 PM,59.0,26.6,29,29.99,10.0,Calm,Calm,-,N/A,,Clear,0,2013-02-12 22:15:00
5:35 PM,59.0,26.6,29,29.98,10.0,Calm,Calm,-,N/A,,Clear,0,2013-02-12 22:35:00
5:55 PM,57.2,28.4,33,29.99,10.0,Calm,Calm,-,N/A,,Clear,0,2013-02-12 22:55:00
6:15 PM,55.4,30.2,38,29.99,10.0,Calm,Calm,-,N/A,,Clear,0,2013-02-12 23:15:00
6:35 PM,55.4,28.4,36,29.97,10.0,Calm,Calm,-,N/A,,Clear,0,2013-02-12 23:35:00
6:55 PM,53.6,32.0,44,29.98,10.0,Calm,Calm,-,N/A,,Clear,0,2013-02-12 23:55:00
7:15 PM,53.6,30.2,41,29.98,10.0,Calm,Calm,-,N/A,,Scattered Clouds,0,2013-02-13 00:15:00
7:35 PM,51.8,32.0,47,29.95,10.0,Calm,Calm,-,N/A,,Scattered Clouds,0,2013-02-13 00:35:00
7:55 PM,53.6,30.2,41,29.93,10.0,Calm,Calm,-,N/A,,Scattered Clouds,0,2013-02-13 00:55:00
8:15 PM,53.6,32.0,44,29.94,10.0,Calm,Calm,-,N/A,,Overcast,0,2013-02-13 01:15:00
8:35 PM,51.8,33.8,50,29.97,10.0,Calm,Calm,-,N/A,,Overcast,0,2013-02-13 01:35:00
8:55 PM,53.6,30.2,41,29.99,10.0,Calm,Calm,-,N/A,,Overcast,0,2013-02-13 01:55:00
9:15 PM,51.8,32.0,47,29.99,10.0,Calm,Calm,-,N/A,,Overcast,0,2013-02-13 02:15:00
9:35 PM,50.0,32.0,50,29.97,10.0,Calm,Calm,-,N/A,,Overcast,0,2013-02-13 02:35:00
9:55 PM,51.8,33.8,50,30.00,10.0,Calm,Calm,-,N/A,,Mostly Cloudy,0,2013-02-13 02:55:00
10:15 PM,51.8,32.0,47,29.98,10.0,Calm,Calm,-,N/A,,Overcast,0,2013-02-13 03:15:00
10:35 PM,51.8,33.8,50,29.97,10.0,Calm,Calm,-,N/A,,Overcast,0,2013-02-13 03:35:00
10:55 PM,48.2,37.4,66,29.98,10.0,NNW,3.5,-,0.01,,Overcast,330,2013-02-13 03:55:00
11:15 PM,46.4,42.8,87,29.98,10.0,Calm,Calm,-,N/A,,Overcast,0,2013-02-13 04:15:00
11:35 PM,48.2,42.8,82,29.98,10.0,SSW,4.6,-,N/A,,Overcast,210,2013-02-13 04:35:00
11:55 PM,48.2,39.2,71,29.96,10.0,Calm,Calm,-,N/A,,Overcast,0,2013-02-13 04:55:00